Time,TemperatureF,DewpointF,PressureIn,WindDirection,WindDirectionDegrees,WindSpeedMPH,WindSpeedGustMPH,Humidity,HourlyPrecipIn,Conditions,Clouds,dailyrainin,SoftwareType,DateUTC
2013-11-18 00:01:00,47.3,41.5,29.87,SW,222,0.0,0.0,80,0.00,,---,0.00,VWS V14.01,2013-11-18 05:01:00,
2013-11-18 00:06:00,47.6,41.1,29.87,West,261,0.0,0.0,78,0.00,,---,0.00,VWS V14.01,2013-11-18 05:06:00,
2013-11-18 00:11:00,48.4,41.5,29.87,WSW,257,0.0,0.0,77,0.00,,---,0.00,VWS V14.01,2013-11-18 05:11:00,
2013-11-18 00:16:00,48.8,41.6,29.87,WSW,252,0.0,0.0,76,0.00,,---,0.00,VWS V14.01,2013-11-18 05:16:00,
2013-11-18 00:21:00,49.2,41.6,29.87,West,263,0.0,0.0,75,0.00,,---,0.00,VWS V14.01,2013-11-18 05:21:00,
2013-11-18 00:26:00,49.4,41.8,29.88,West,268,0.0,0.0,75,0.00,,---,0.00,VWS V14.01,2013-11-18 05:26:00,
2013-11-18 00:31:00,49.5,41.6,29.88,West,266,0.0,0.0,74,0.00,,---,0.00,VWS V14.01,2013-11-18 05:31:00,
2013-11-18 00:36:00,49.8,41.9,29.89,WSW,257,0.0,0.0,74,0.00,,---,0.00,VWS V14.01,2013-11-18 05:36:00,
2013-11-18 00:41:00,49.6,42.0,29.89,WSW,247,0.0,0.0,75,0.00,,---,0.00,VWS V14.01,2013-11-18 05:41:00,
2013-11-18 00:46:00,49.1,41.5,29.89,WSW,247,0.0,0.0,75,0.00,,---,0.00,VWS V14.01,2013-11-18 05:46:00,
2013-11-18 00:51:00,48.4,41.5,29.89,WSW,247,0.0,0.0,77,0.00,,---,0.00,VWS V14.01,2013-11-18 05:51:00,
2013-11-18 00:56:00,47.6,41.1,29.89,WSW,247,0.0,0.0,78,0.00,,---,0.00,VWS V14.01,2013-11-18 05:56:00,
2013-11-18 01:01:00,46.8,41.0,29.89,WSW,247,0.0,0.0,80,0.00,,---,0.00,VWS V14.01,2013-11-18 06:01:00,
2013-11-18 01:06:00,46.3,40.5,29.89,WSW,247,0.0,0.0,80,0.00,,---,0.00,VWS V14.01,2013-11-18 06:06:00,
2013-11-18 01:11:00,46.1,40.6,29.90,WSW,247,0.0,0.0,81,0.00,,---,0.00,VWS V14.01,2013-11-18 06:11:00,
2013-11-18 01:16:00,45.5,40.0,29.90,WSW,247,0.0,0.0,81,0.00,,---,0.00,VWS V14.01,2013-11-18 06:16:00,
2013-11-18 01:21:00,44.9,39.8,29.90,WSW,247,0.0,0.0,82,0.00,,---,0.00,VWS V14.01,2013-11-18 06:21:00,
2013-11-18 01:26:00,44.1,39.3,29.90,WSW,248,0.0,0.0,83,0.00,,---,0.00,VWS V14.01,2013-11-18 06:26:00,
2013-11-18 01:31:00,43.4,38.6,29.91,WSW,247,0.0,0.0,83,0.00,,---,0.00,VWS V14.01,2013-11-18 06:31:00,
2013-11-18 01:36:00,42.8,38.3,29.91,WSW,247,0.0,0.0,84,0.00,,---,0.00,VWS V14.01,2013-11-18 06:36:00,
2013-11-18 01:41:00,42.3,38.1,29.91,WSW,247,0.0,0.0,85,0.00,,---,0.00,VWS V14.01,2013-11-18 06:41:00,
2013-11-18 01:46:00,41.9,38.0,29.91,WSW,247,0.0,0.0,86,0.00,,---,0.00,VWS V14.01,2013-11-18 06:46:00,
2013-11-18 01:51:00,41.5,37.6,29.92,WSW,247,0.0,0.0,86,0.00,,---,0.00,VWS V14.01,2013-11-18 06:51:00,
2013-11-18 01:56:00,41.4,38.1,29.91,WSW,247,0.0,0.0,88,0.00,,---,0.00,VWS V14.01,2013-11-18 06:56:00,
2013-11-18 02:01:00,41.3,38.3,29.92,WSW,247,0.0,0.0,89,0.00,,---,0.00,VWS V14.01,2013-11-18 07:01:00,
2013-11-18 02:06:00,41.2,38.2,29.92,WSW,247,0.0,0.0,89,0.00,,---,0.00,VWS V14.01,2013-11-18 07:06:00,
2013-11-18 02:11:00,41.4,38.4,29.92,WSW,247,0.0,1.0,89,0.00,,---,0.00,VWS V14.01,2013-11-18 07:11:00,
2013-11-18 02:16:00,41.7,38.4,29.92,WSW,247,0.0,0.0,88,0.00,,---,0.00,VWS V14.01,2013-11-18 07:16:00,
2013-11-18 02:21:00,42.0,38.7,29.92,WSW,257,0.0,0.0,88,0.00,,---,0.00,VWS V14.01,2013-11-18 07:21:00,
2013-11-18 02:26:00,42.5,38.6,29.93,SW,236,0.0,0.0,86,0.00,,---,0.00,VWS V14.01,2013-11-18 07:26:00,
2013-11-18 02:31:00,42.8,38.6,29.93,SW,233,0.0,0.0,85,0.00,,---,0.00,VWS V14.01,2013-11-18 07:31:00,
2013-11-18 02:36:00,43.2,39.0,29.93,West,270,0.0,0.0,85,0.00,,---,0.00,VWS V14.01,2013-11-18 07:36:00,
2013-11-18 02:41:00,43.5,39.0,29.93,West,270,0.0,0.0,84,0.00,,---,0.00,VWS V14.01,2013-11-18 07:41:00,
2013-11-18 02:46:00,43.5,39.0,29.93,West,270,0.0,0.0,84,0.00,,---,0.00,VWS V14.01,2013-11-18 07:46:00,
2013-11-18 02:51:00,43.4,38.9,29.94,West,270,0.0,0.0,84,0.00,,---,0.00,VWS V14.01,2013-11-18 07:51:00,
2013-11-18 02:56:00,43.2,38.7,29.94,West,270,0.0,0.0,84,0.00,,---,0.00,VWS V14.01,2013-11-18 07:56:00,
2013-11-18 03:01:00,43.1,38.6,29.94,West,270,0.0,0.0,84,0.00,,---,0.00,VWS V14.01,2013-11-18 08:01:00,
2013-11-18 03:06:00,43.3,38.8,29.95,West,270,0.0,1.0,84,0.00,,---,0.00,VWS V14.01,2013-11-18 08:06:00,
2013-11-18 03:11:00,43.8,39.3,29.95,West,270,0.0,0.0,84,0.00,,---,0.00,VWS V14.01,2013-11-18 08:11:00,
2013-11-18 03:16:00,43.8,39.3,29.95,West,259,1.0,1.0,84,0.00,,---,0.00,VWS V14.01,2013-11-18 08:16:00,
2013-11-18 03:21:00,44.0,39.5,29.96,West,259,3.0,3.0,84,0.00,,---,0.00,VWS V14.01,2013-11-18 08:21:00,
2013-11-18 03:26:00,45.0,40.2,29.96,SW,218,2.0,2.0,83,0.00,,---,0.00,VWS V14.01,2013-11-18 08:26:00,
2013-11-18 03:31:00,46.2,40.7,29.96,WNW,298,3.0,3.0,81,0.00,,---,0.00,VWS V14.01,2013-11-18 08:31:00,
2013-11-18 03:36:00,47.1,41.3,29.96,NW,321,1.0,4.0,80,0.00,,---,0.00,VWS V14.01,2013-11-18 08:36:00,
2013-11-18 03:41:00,47.4,41.2,29.96,SW,233,0.0,3.0,79,0.00,,---,0.00,VWS V14.01,2013-11-18 08:41:00,
2013-11-18 03:46:00,47.5,41.3,29.96,West,273,3.0,4.0,79,0.00,,---,0.00,VWS V14.01,2013-11-18 08:46:00,
2013-11-18 03:51:00,47.7,41.5,29.97,WNW,287,2.0,2.0,79,0.00,,---,0.00,VWS V14.01,2013-11-18 08:51:00,
2013-11-18 03:56:00,47.5,41.3,29.97,West,281,0.0,4.0,79,0.00,,---,0.00,VWS V14.01,2013-11-18 08:56:00,
2013-11-18 04:01:00,47.3,41.1,29.97,NW,308,3.0,3.0,79,0.00,,---,0.00,VWS V14.01,2013-11-18 09:01:00,
2013-11-18 04:06:00,47.3,41.1,29.97,West,261,3.0,3.0,79,0.00,,---,0.00,VWS V14.01,2013-11-18 09:06:00,
2013-11-18 04:11:00,47.1,41.3,29.97,West,280,1.0,2.0,80,0.00,,---,0.00,VWS V14.01,2013-11-18 09:11:00,
2013-11-18 04:16:00,46.8,41.0,29.97,West,274,0.0,2.0,80,0.00,,---,0.00,VWS V14.01,2013-11-18 09:16:00,
2013-11-18 04:21:00,46.4,40.9,29.97,WSW,249,2.0,4.0,81,0.00,,---,0.00,VWS V14.01,2013-11-18 09:21:00,
2013-11-18 04:26:00,46.4,40.9,29.98,WSW,258,2.0,4.0,81,0.00,,---,0.00,VWS V14.01,2013-11-18 09:26:00,
2013-11-18 04:31:00,46.4,40.6,29.98,WNW,291,3.0,4.0,80,0.00,,---,0.00,VWS V14.01,2013-11-18 09:31:00,
2013-11-18 04:35:00,46.4,40.6,29.98,WNW,282,1.0,2.0,80,0.00,,---,0.00,VWS V14.01,2013-11-18 09:35:00,
2013-11-18 04:40:00,46.2,40.4,29.99,WSW,243,1.0,2.0,80,0.00,,---,0.00,VWS V14.01,2013-11-18 09:40:00,
2013-11-18 04:45:00,45.8,40.3,29.99,WNW,282,0.0,1.0,81,0.00,,---,0.00,VWS V14.01,2013-11-18 09:45:00,
2013-11-18 04:50:00,45.5,40.0,29.99,SW,236,2.0,3.0,81,0.00,,---,0.00,VWS V14.01,2013-11-18 09:50:00,
2013-11-18 04:55:00,45.1,39.9,30.00,WSW,249,0.0,1.0,82,0.00,,---,0.00,VWS V14.01,2013-11-18 09:55:00,
2013-11-18 05:00:00,44.6,39.5,30.00,WNW,295,1.0,2.0,82,0.00,,---,0.00,VWS V14.01,2013-11-18 10:00:00,
2013-11-18 05:05:00,44.1,39.3,30.00,West,266,1.0,1.0,83,0.00,,---,0.00,VWS V14.01,2013-11-18 10:05:00,
2013-11-18 05:10:00,44.0,39.2,30.00,WSW,243,1.0,2.0,83,0.00,,---,0.00,VWS V14.01,2013-11-18 10:10:00,
2013-11-18 05:15:00,43.8,39.0,30.00,West,277,0.0,1.0,83,0.00,,---,0.00,VWS V14.01,2013-11-18 10:15:00,
2013-11-18 05:20:00,43.4,38.6,30.00,West,268,1.0,1.0,83,0.00,,---,0.00,VWS V14.01,2013-11-18 10:20:00,
2013-11-18 05:25:00,43.2,38.4,30.01,West,278,0.0,0.0,83,0.00,,---,0.00,VWS V14.01,2013-11-18 10:25:00,
2013-11-18 05:30:00,42.9,38.4,30.01,WSW,252,1.0,1.0,84,0.00,,---,0.00,VWS V14.01,2013-11-18 10:30:00,
2013-11-18 05:35:00,42.7,38.2,30.01,WNW,287,1.0,1.0,84,0.00,,---,0.00,VWS V14.01,2013-11-18 10:35:00,
2013-11-18 05:40:00,42.7,37.9,30.01,West,274,1.0,1.0,83,0.00,,---,0.00,VWS V14.01,2013-11-18 10:40:00,
2013-11-18 05:45:00,42.7,37.9,30.01,West,279,0.0,1.0,83,0.00,,---,0.00,VWS V14.01,2013-11-18 10:45:00,
2013-11-18 05:50:00,42.4,37.6,30.01,WSW,249,0.0,2.0,83,0.00,,---,0.00,VWS V14.01,2013-11-18 10:50:00,
2013-11-18 05:55:00,42.3,37.8,30.01,West,271,2.0,3.0,84,0.00,,---,0.00,VWS V14.01,2013-11-18 10:55:00,
2013-11-18 06:00:00,42.2,37.7,30.01,West,275,0.0,0.0,84,0.00,,---,0.00,VWS V14.01,2013-11-18 11:00:00,
2013-11-18 06:05:00,42.1,37.6,30.01,West,278,3.0,3.0,84,0.00,,---,0.00,VWS V14.01,2013-11-18 11:05:00,
2013-11-18 06:10:00,42.6,37.8,30.01,WNW,282,1.0,3.0,83,0.00,,---,0.00,VWS V14.01,2013-11-18 11:10:00,
2013-11-18 06:15:00,42.8,37.7,30.01,WNW,291,0.0,1.0,82,0.00,,---,0.00,VWS V14.01,2013-11-18 11:15:00,
2013-11-18 06:20:00,42.8,37.7,30.01,West,277,0.0,0.0,82,0.00,,---,0.00,VWS V14.01,2013-11-18 11:20:00,
2013-11-18 06:25:00,42.6,37.5,30.01,WSW,255,0.0,0.0,82,0.00,,---,0.00,VWS V14.01,2013-11-18 11:25:00,
2013-11-18 06:30:00,42.4,37.3,30.01,WSW,249,0.0,0.0,82,0.00,,---,0.00,VWS V14.01,2013-11-18 11:30:00,
2013-11-18 06:35:00,42.0,36.9,30.01,West,277,0.0,0.0,82,0.00,,---,0.00,VWS V14.01,2013-11-18 11:35:00,
2013-11-18 06:40:00,41.6,36.8,30.01,West,277,0.0,0.0,83,0.00,,---,0.00,VWS V14.01,2013-11-18 11:40:00,
2013-11-18 06:45:00,40.9,36.1,30.01,West,277,0.0,0.0,83,0.00,,---,0.00,VWS V14.01,2013-11-18 11:45:00,
2013-11-18 06:50:00,40.2,35.5,30.01,West,277,0.0,0.0,83,0.00,,---,0.00,VWS V14.01,2013-11-18 11:50:00,
2013-11-18 06:55:00,39.5,35.1,30.01,West,277,0.0,0.0,84,0.00,,---,0.00,VWS V14.01,2013-11-18 11:55:00,
2013-11-18 07:00:00,39.0,34.9,30.01,West,277,0.0,0.0,85,0.00,,---,0.00,VWS V14.01,2013-11-18 12:00:00,
2013-11-18 07:05:00,38.6,34.5,30.01,West,277,0.0,0.0,85,0.00,,---,0.00,VWS V14.01,2013-11-18 12:05:00,
2013-11-18 07:10:00,38.4,34.6,30.02,West,277,0.0,0.0,86,0.00,,---,0.00,VWS V14.01,2013-11-18 12:10:00,
2013-11-18 07:15:00,38.1,34.3,30.02,West,277,0.0,0.0,86,0.00,,---,0.00,VWS V14.01,2013-11-18 12:15:00,
2013-11-18 07:20:00,37.6,33.8,30.02,West,277,0.0,0.0,86,0.00,,---,0.00,VWS V14.01,2013-11-18 12:20:00,
2013-11-18 07:25:00,37.2,33.7,30.02,West,277,0.0,0.0,87,0.00,,---,0.00,VWS V14.01,2013-11-18 12:25:00,
2013-11-18 07:30:00,36.9,33.7,30.02,West,277,0.0,0.0,88,0.00,,---,0.00,VWS V14.01,2013-11-18 12:30:00,
2013-11-18 07:35:00,36.7,33.5,30.02,West,277,0.0,0.0,88,0.00,,---,0.00,VWS V14.01,2013-11-18 12:35:00,
2013-11-18 07:40:00,36.5,33.6,30.02,West,277,0.0,0.0,89,0.00,,---,0.00,VWS V14.01,2013-11-18 12:40:00,
2013-11-18 07:45:00,36.3,33.7,30.03,West,277,0.0,0.0,90,0.00,,---,0.00,VWS V14.01,2013-11-18 12:45:00,
2013-11-18 07:50:00,36.5,33.8,30.03,West,277,0.0,0.0,90,0.00,,---,0.00,VWS V14.01,2013-11-18 12:50:00,
2013-11-18 07:55:00,36.9,34.2,30.03,West,277,0.0,0.0,90,0.00,,---,0.00,VWS V14.01,2013-11-18 12:55:00,
2013-11-18 08:00:00,37.7,35.3,30.03,West,277,0.0,0.0,91,0.00,,---,0.00,VWS V14.01,2013-11-18 13:00:00,
2013-11-18 08:05:00,38.3,35.6,30.04,West,277,0.0,0.0,90,0.00,,---,0.00,VWS V14.01,2013-11-18 13:05:00,
2013-11-18 08:10:00,39.0,36.3,30.04,West,277,0.0,0.0,90,0.00,,---,0.00,VWS V14.01,2013-11-18 13:10:00,
2013-11-18 08:15:00,39.6,36.6,30.04,West,277,0.0,0.0,89,0.00,,---,0.00,VWS V14.01,2013-11-18 13:15:00,
2013-11-18 08:20:00,40.3,37.0,30.04,West,277,0.0,0.0,88,0.00,,---,0.00,VWS V14.01,2013-11-18 13:20:00,
2013-11-18 08:25:00,40.9,37.3,30.05,West,277,0.0,0.0,87,0.00,,---,0.00,VWS V14.01,2013-11-18 13:25:00,
2013-11-18 08:30:00,41.7,38.1,30.05,West,277,0.0,0.0,87,0.00,,---,0.00,VWS V14.01,2013-11-18 13:30:00,
2013-11-18 08:35:00,42.8,38.9,30.05,SW,229,0.0,0.0,86,0.00,,---,0.00,VWS V14.01,2013-11-18 13:35:00,
2013-11-18 08:40:00,44.3,39.8,30.05,SW,230,0.0,0.0,84,0.00,,---,0.00,VWS V14.01,2013-11-18 13:40:00,
2013-11-18 08:45:00,45.5,40.7,30.06,SW,230,0.0,0.0,83,0.00,,---,0.00,VWS V14.01,2013-11-18 13:45:00,
2013-11-18 08:50:00,46.5,40.7,30.06,WNW,287,0.0,1.0,80,0.00,,---,0.00,VWS V14.01,2013-11-18 13:50:00,
2013-11-18 08:55:00,46.5,40.7,30.06,NW,323,0.0,1.0,80,0.00,,---,0.00,VWS V14.01,2013-11-18 13:55:00,
2013-11-18 09:04:00,47.2,41.4,30.06,WNW,292,1.0,2.0,80,0.00,,---,0.00,VWS V14.01,2013-11-18 14:04:00,
2013-11-18 09:08:00,48.0,41.8,30.07,WSW,239,2.0,4.0,79,0.00,,---,0.00,VWS V14.01,2013-11-18 14:08:00,
2013-11-18 09:13:00,48.3,41.8,30.06,West,264,0.0,4.0,78,0.00,,---,0.00,VWS V14.01,2013-11-18 14:13:00,
2013-11-18 09:18:00,48.6,41.7,30.07,SSW,211,3.0,3.0,77,0.00,,---,0.00,VWS V14.01,2013-11-18 14:18:00,
2013-11-18 09:23:00,48.9,41.7,30.07,WSW,257,1.0,3.0,76,0.00,,---,0.00,VWS V14.01,2013-11-18 14:23:00,
2013-11-18 09:28:00,49.1,41.9,30.07,WNW,294,4.0,5.0,76,0.00,,---,0.00,VWS V14.01,2013-11-18 14:28:00,
2013-11-18 09:33:00,49.3,42.1,30.07,WNW,292,4.0,5.0,76,0.00,,---,0.00,VWS V14.01,2013-11-18 14:33:00,
2013-11-18 09:38:00,49.5,42.3,30.07,West,268,1.0,5.0,76,0.00,,---,0.00,VWS V14.01,2013-11-18 14:38:00,
2013-11-18 09:43:00,49.7,41.8,30.08,West,275,3.0,6.0,74,0.00,,---,0.00,VWS V14.01,2013-11-18 14:43:00,
2013-11-18 09:48:00,49.8,41.9,30.08,WSW,249,4.0,8.0,74,0.00,,---,0.00,VWS V14.01,2013-11-18 14:48:00,
2013-11-18 09:53:00,49.9,41.6,30.08,West,277,5.0,6.0,73,0.00,,---,0.00,VWS V14.01,2013-11-18 14:53:00,
2013-11-18 09:58:00,50.0,41.3,30.08,WNW,287,4.0,10.0,72,0.00,,---,0.00,VWS V14.01,2013-11-18 14:58:00,
2013-11-18 10:03:00,50.1,41.8,30.08,NW,314,6.0,9.0,73,0.00,,---,0.00,VWS V14.01,2013-11-18 15:03:00,
2013-11-18 10:08:00,50.2,41.9,30.09,WNW,300,6.0,10.0,73,0.00,,---,0.00,VWS V14.01,2013-11-18 15:08:00,
2013-11-18 10:13:00,50.3,41.6,30.09,WNW,290,6.0,8.0,72,0.00,,---,0.00,VWS V14.01,2013-11-18 15:13:00,
2013-11-18 10:18:00,50.3,42.0,30.09,WNW,285,6.0,10.0,73,0.00,,---,0.00,VWS V14.01,2013-11-18 15:18:00,
2013-11-18 10:23:00,50.4,42.1,30.09,West,280,1.0,3.0,73,0.00,,---,0.00,VWS V14.01,2013-11-18 15:23:00,
2013-11-18 10:28:00,50.4,41.7,30.09,WSW,243,5.0,9.0,72,0.00,,---,0.00,VWS V14.01,2013-11-18 15:28:00,
2013-11-18 10:33:00,50.4,41.7,30.10,WNW,292,6.0,7.0,72,0.00,,---,0.00,VWS V14.01,2013-11-18 15:33:00,
2013-11-18 10:38:00,50.7,42.4,30.10,WNW,291,6.0,9.0,73,0.00,,---,0.00,VWS V14.01,2013-11-18 15:38:00,
2013-11-18 10:43:00,50.7,41.7,30.10,West,262,4.0,10.0,71,0.00,,---,0.00,VWS V14.01,2013-11-18 15:43:00,
2013-11-18 10:48:00,50.7,41.7,30.10,WSW,254,10.0,13.0,71,0.00,,---,0.00,VWS V14.01,2013-11-18 15:48:00,
2013-11-18 10:51:00,50.6,41.2,30.10,WNW,282,8.0,10.0,70,0.00,,---,0.00,VWS V14.01,2013-11-18 15:51:00,
2013-11-18 10:56:00,50.8,41.8,30.10,WSW,244,3.0,8.0,71,0.00,,---,0.00,VWS V14.01,2013-11-18 15:56:00,
2013-11-18 11:01:00,50.9,41.5,30.10,NW,323,4.0,6.0,70,0.00,,---,0.00,VWS V14.01,2013-11-18 16:01:00,
2013-11-18 11:06:00,51.0,40.8,30.10,WNW,292,2.0,7.0,68,0.00,,---,0.00,VWS V14.01,2013-11-18 16:06:00,
2013-11-18 11:11:00,51.0,41.2,30.10,WSW,239,3.0,7.0,69,0.00,,---,0.00,VWS V14.01,2013-11-18 16:11:00,
2013-11-18 11:16:00,51.3,41.5,30.10,WNW,294,5.0,5.0,69,0.00,,---,0.00,VWS V14.01,2013-11-18 16:16:00,
2013-11-18 11:21:00,51.7,42.6,30.10,WSW,247,4.0,5.0,71,0.00,,---,0.00,VWS V14.01,2013-11-18 16:21:00,
2013-11-18 11:26:00,51.7,40.7,30.10,West,260,7.0,9.0,66,0.00,,---,0.00,VWS V14.01,2013-11-18 16:26:00,
2013-11-18 11:30:00,51.9,40.9,30.10,WNW,287,4.0,9.0,66,0.00,,---,0.00,VWS V14.01,2013-11-18 16:30:00,
2013-11-18 11:35:00,52.3,42.1,30.10,West,279,4.0,6.0,68,0.00,,---,0.00,VWS V14.01,2013-11-18 16:35:00,
2013-11-18 11:40:00,52.7,41.3,30.09,NW,318,3.0,11.0,65,0.00,,---,0.00,VWS V14.01,2013-11-18 16:40:00,
2013-11-18 11:45:00,52.6,41.2,30.09,WNW,295,6.0,8.0,65,0.00,,---,0.00,VWS V14.01,2013-11-18 16:45:00,
2013-11-18 11:50:00,52.6,40.4,30.09,WNW,292,8.0,11.0,63,0.00,,---,0.00,VWS V14.01,2013-11-18 16:50:00,
2013-11-18 11:55:00,52.6,40.8,30.09,NW,312,3.0,9.0,64,0.00,,---,0.00,VWS V14.01,2013-11-18 16:55:00,
2013-11-18 12:00:00,52.7,41.3,30.09,NW,308,7.0,10.0,65,0.00,,---,0.00,VWS V14.01,2013-11-18 17:00:00,
2013-11-18 12:05:00,52.7,41.3,30.08,WSW,258,5.0,8.0,65,0.00,,---,0.00,VWS V14.01,2013-11-18 17:05:00,
2013-11-18 12:10:00,53.0,42.0,30.08,NW,319,4.0,6.0,66,0.00,,---,0.00,VWS V14.01,2013-11-18 17:10:00,
2013-11-18 12:15:00,53.3,40.6,30.08,WSW,254,4.0,11.0,62,0.00,,---,0.00,VWS V14.01,2013-11-18 17:15:00,
2013-11-18 12:20:00,53.5,41.2,30.08,WNW,285,5.0,6.0,63,0.00,,---,0.00,VWS V14.01,2013-11-18 17:20:00,
2013-11-18 12:25:00,53.7,40.2,30.08,West,277,7.0,12.0,60,0.00,,---,0.00,VWS V14.01,2013-11-18 17:25:00,
2013-11-18 12:30:00,53.5,39.5,30.08,WNW,299,6.0,13.0,59,0.00,,---,0.00,VWS V14.01,2013-11-18 17:30:00,
2013-11-18 12:35:00,53.7,39.7,30.09,SW,229,4.0,9.0,59,0.00,,---,0.00,VWS V14.01,2013-11-18 17:35:00,
2013-11-18 12:40:00,53.7,39.7,30.08,WSW,242,4.0,8.0,59,0.00,,---,0.00,VWS V14.01,2013-11-18 17:40:00,
2013-11-18 12:45:00,53.9,39.9,30.08,NNW,329,3.0,7.0,59,0.00,,---,0.00,VWS V14.01,2013-11-18 17:45:00,
2013-11-18 12:50:00,53.9,39.5,30.08,WSW,252,14.0,15.0,58,0.00,,---,0.00,VWS V14.01,2013-11-18 17:50:00,
2013-11-18 12:55:00,53.9,38.6,30.09,West,280,16.0,16.0,56,0.00,,---,0.00,VWS V14.01,2013-11-18 17:55:00,
2013-11-18 13:00:00,53.9,39.0,30.09,WNW,290,9.0,13.0,57,0.00,,---,0.00,VWS V14.01,2013-11-18 18:00:00,
2013-11-18 13:05:00,53.9,39.0,30.09,NW,312,9.0,9.0,57,0.00,,---,0.00,VWS V14.01,2013-11-18 18:05:00,
2013-11-18 13:10:00,54.0,39.6,30.09,WNW,296,8.0,11.0,58,0.00,,---,0.00,VWS V14.01,2013-11-18 18:10:00,
2013-11-18 13:15:00,54.3,39.0,30.09,West,263,8.0,9.0,56,0.00,,---,0.00,VWS V14.01,2013-11-18 18:15:00,
2013-11-18 13:20:00,54.1,38.3,30.09,West,274,4.0,12.0,55,0.00,,---,0.00,VWS V14.01,2013-11-18 18:20:00,
2013-11-18 13:25:00,54.1,37.4,30.09,SW,233,5.0,11.0,53,0.00,,---,0.00,VWS V14.01,2013-11-18 18:25:00,
2013-11-18 13:30:00,54.4,37.6,30.09,NW,308,5.0,9.0,53,0.00,,---,0.00,VWS V14.01,2013-11-18 18:30:00,
2013-11-18 13:35:00,54.3,37.1,30.09,WNW,292,8.0,8.0,52,0.00,,---,0.00,VWS V14.01,2013-11-18 18:35:00,
2013-11-18 13:40:00,54.3,38.5,30.09,WNW,285,6.0,11.0,55,0.00,,---,0.00,VWS V14.01,2013-11-18 18:40:00,
2013-11-18 13:45:00,54.4,38.1,30.09,West,277,4.0,6.0,54,0.00,,---,0.00,VWS V14.01,2013-11-18 18:45:00,
2013-11-18 13:50:00,54.6,37.8,30.09,WNW,287,7.0,8.0,53,0.00,,---,0.00,VWS V14.01,2013-11-18 18:50:00,
2013-11-18 13:55:00,54.9,39.0,30.09,WSW,245,7.0,7.0,55,0.00,,---,0.00,VWS V14.01,2013-11-18 18:55:00,
2013-11-18 14:00:00,55.1,36.8,30.09,WNW,296,2.0,2.0,50,0.00,,---,0.00,VWS V14.01,2013-11-18 19:00:00,
2013-11-18 14:05:00,55.0,37.7,30.09,WNW,289,4.0,5.0,52,0.00,,---,0.00,VWS V14.01,2013-11-18 19:05:00,
2013-11-18 14:10:00,55.0,37.7,30.09,WNW,299,7.0,9.0,52,0.00,,---,0.00,VWS V14.01,2013-11-18 19:10:00,
2013-11-18 14:15:00,55.0,37.2,30.09,SSW,207,6.0,8.0,51,0.00,,---,0.00,VWS V14.01,2013-11-18 19:15:00,
2013-11-18 14:20:00,55.0,37.2,30.09,SW,226,5.0,5.0,51,0.00,,---,0.00,VWS V14.01,2013-11-18 19:20:00,
2013-11-18 14:25:00,55.1,36.8,30.08,WNW,283,8.0,8.0,50,0.00,,---,0.00,VWS V14.01,2013-11-18 19:25:00,
2013-11-18 14:30:00,55.3,37.0,30.09,WNW,287,6.0,8.0,50,0.00,,---,0.00,VWS V14.01,2013-11-18 19:30:00,
2013-11-18 14:35:00,55.2,35.3,30.09,WNW,287,7.0,7.0,47,0.00,,---,0.00,VWS V14.01,2013-11-18 19:35:00,
2013-11-18 14:40:00,55.0,35.2,30.09,WNW,284,6.0,7.0,47,0.00,,---,0.00,VWS V14.01,2013-11-18 19:40:00,
2013-11-18 14:45:00,55.0,35.2,30.09,WNW,302,5.0,5.0,47,0.00,,---,0.00,VWS V14.01,2013-11-18 19:45:00,
2013-11-18 14:50:00,54.9,36.1,30.09,NNW,329,6.0,7.0,49,0.00,,---,0.00,VWS V14.01,2013-11-18 19:50:00,
2013-11-18 14:55:00,55.0,36.2,30.09,West,277,4.0,5.0,49,0.00,,---,0.00,VWS V14.01,2013-11-18 19:55:00,
2013-11-18 15:00:00,54.8,32.2,30.09,WSW,243,7.0,15.0,42,0.00,,---,0.00,VWS V14.01,2013-11-18 20:00:00,
2013-11-18 15:05:00,54.7,32.7,30.10,NW,320,6.0,10.0,43,0.00,,---,0.00,VWS V14.01,2013-11-18 20:05:00,
2013-11-18 15:10:00,54.5,33.0,30.10,WNW,294,5.0,8.0,44,0.00,,---,0.00,VWS V14.01,2013-11-18 20:10:00,
2013-11-18 15:15:00,54.6,33.1,30.10,NW,318,4.0,5.0,44,0.00,,---,0.00,VWS V14.01,2013-11-18 20:15:00,
2013-11-18 15:20:00,54.6,33.7,30.10,West,267,8.0,11.0,45,0.00,,---,0.00,VWS V14.01,2013-11-18 20:20:00,
2013-11-18 15:25:00,54.5,33.6,30.10,WNW,295,9.0,9.0,45,0.00,,---,0.00,VWS V14.01,2013-11-18 20:25:00,
2013-11-18 15:30:00,54.4,33.0,30.10,WNW,297,6.0,6.0,44,0.00,,---,0.00,VWS V14.01,2013-11-18 20:30:00,
2013-11-18 15:35:00,54.3,32.3,30.11,West,268,6.0,6.0,43,0.00,,---,0.00,VWS V14.01,2013-11-18 20:35:00,
2013-11-18 15:40:00,54.2,32.8,30.11,WNW,295,7.0,7.0,44,0.00,,---,0.00,VWS V14.01,2013-11-18 20:40:00,
2013-11-18 15:45:00,54.1,32.7,30.11,WNW,291,7.0,7.0,44,0.00,,---,0.00,VWS V14.01,2013-11-18 20:45:00,
2013-11-18 15:50:00,54.0,32.6,30.11,NW,313,10.0,12.0,44,0.00,,---,0.00,VWS V14.01,2013-11-18 20:50:00,
2013-11-18 15:55:00,54.0,33.2,30.11,WSW,255,9.0,11.0,45,0.00,,---,0.00,VWS V14.01,2013-11-18 20:55:00,
2013-11-18 16:00:00,53.9,33.1,30.11,WNW,291,4.0,4.0,45,0.00,,---,0.00,VWS V14.01,2013-11-18 21:00:00,
2013-11-18 16:05:00,53.9,33.1,30.11,WNW,282,6.0,7.0,45,0.00,,---,0.00,VWS V14.01,2013-11-18 21:05:00,
2013-11-18 16:10:00,53.7,32.9,30.11,WNW,284,1.0,3.0,45,0.00,,---,0.00,VWS V14.01,2013-11-18 21:10:00,
2013-11-18 16:15:00,53.5,33.2,30.12,NW,312,5.0,7.0,46,0.00,,---,0.00,VWS V14.01,2013-11-18 21:15:00,
2013-11-18 16:20:00,53.3,33.1,30.12,West,266,3.0,3.0,46,0.00,,---,0.00,VWS V14.01,2013-11-18 21:20:00,
2013-11-18 16:25:00,53.2,33.5,30.12,West,280,4.0,5.0,47,0.00,,---,0.00,VWS V14.01,2013-11-18 21:25:00,
2013-11-18 16:30:00,53.0,33.3,30.12,West,280,7.0,7.0,47,0.00,,---,0.00,VWS V14.01,2013-11-18 21:30:00,
2013-11-18 16:35:00,52.8,33.7,30.12,SW,236,7.0,7.0,48,0.00,,---,0.00,VWS V14.01,2013-11-18 21:35:00,
2013-11-18 16:40:00,52.6,33.0,30.12,WNW,302,8.0,8.0,47,0.00,,---,0.00,VWS V14.01,2013-11-18 21:40:00,
2013-11-18 16:45:00,52.3,31.0,30.13,NW,323,9.0,10.0,44,0.00,,---,0.00,VWS V14.01,2013-11-18 21:45:00,
2013-11-18 16:50:00,51.8,29.5,30.13,North,1,2.0,2.0,42,0.00,,---,0.00,VWS V14.01,2013-11-18 21:50:00,
2013-11-18 16:55:00,51.6,29.9,30.13,NW,323,4.0,4.0,43,0.00,,---,0.00,VWS V14.01,2013-11-18 21:55:00,
2013-11-18 17:00:00,51.4,30.2,30.13,NW,304,4.0,7.0,44,0.00,,---,0.00,VWS V14.01,2013-11-18 22:00:00,
2013-11-18 17:05:00,51.2,30.0,30.14,WNW,284,6.0,6.0,44,0.00,,---,0.00,VWS V14.01,2013-11-18 22:05:00,
2013-11-18 17:10:00,50.9,30.9,30.14,SSW,212,5.0,5.0,46,0.00,,---,0.00,VWS V14.01,2013-11-18 22:10:00,
2013-11-18 17:15:00,50.7,31.2,30.14,West,278,2.0,2.0,47,0.00,,---,0.00,VWS V14.01,2013-11-18 22:15:00,
2013-11-18 17:20:00,50.4,31.5,30.14,NNW,327,4.0,6.0,48,0.00,,---,0.00,VWS V14.01,2013-11-18 22:20:00,
2013-11-18 17:25:00,50.3,31.4,30.14,WNW,298,4.0,5.0,48,0.00,,---,0.00,VWS V14.01,2013-11-18 22:25:00,
2013-11-18 17:30:00,50.1,31.7,30.15,SW,233,1.0,4.0,49,0.00,,---,0.00,VWS V14.01,2013-11-18 22:30:00,
2013-11-18 17:35:00,49.9,31.5,30.15,WSW,247,2.0,4.0,49,0.00,,---,0.00,VWS V14.01,2013-11-18 22:35:00,
2013-11-18 17:40:00,49.6,31.7,30.15,WNW,282,3.0,5.0,50,0.00,,---,0.00,VWS V14.01,2013-11-18 22:40:00,
2013-11-18 17:45:00,49.3,31.5,30.15,WSW,253,4.0,6.0,50,0.00,,---,0.00,VWS V14.01,2013-11-18 22:45:00,
2013-11-18 17:50:00,49.1,31.3,30.15,WNW,288,4.0,6.0,50,0.00,,---,0.00,VWS V14.01,2013-11-18 22:50:00,
2013-11-18 17:55:00,48.9,31.1,30.15,WNW,301,2.0,7.0,50,0.00,,---,0.00,VWS V14.01,2013-11-18 22:55:00,
2013-11-18 18:00:00,48.7,30.9,30.16,West,274,6.0,6.0,50,0.00,,---,0.00,VWS V14.01,2013-11-18 23:00:00,
2013-11-18 18:05:00,48.5,30.7,30.16,WNW,290,2.0,3.0,50,0.00,,---,0.00,VWS V14.01,2013-11-18 23:05:00,
2013-11-18 18:10:00,48.3,30.5,30.16,West,268,1.0,5.0,50,0.00,,---,0.00,VWS V14.01,2013-11-18 23:10:00,
2013-11-18 18:15:00,48.1,30.4,30.16,SW,233,3.0,7.0,50,0.00,,---,0.00,VWS V14.01,2013-11-18 23:15:00,
2013-11-18 18:20:00,47.9,30.2,30.16,West,266,1.0,4.0,50,0.00,,---,0.00,VWS V14.01,2013-11-18 23:20:00,
2013-11-18 18:25:00,47.7,30.0,30.17,WNW,287,1.0,3.0,50,0.00,,---,0.00,VWS V14.01,2013-11-18 23:25:00,
2013-11-18 18:30:00,47.4,30.2,30.17,West,280,2.0,4.0,51,0.00,,---,0.00,VWS V14.01,2013-11-18 23:30:00,
2013-11-18 18:35:00,47.2,30.0,30.17,WNW,291,3.0,3.0,51,0.00,,---,0.00,VWS V14.01,2013-11-18 23:35:00,
2013-11-18 18:39:00,47.0,30.3,30.17,West,278,2.0,4.0,52,0.00,,---,0.00,VWS V14.01,2013-11-18 23:39:00,
2013-11-18 18:44:00,46.7,30.0,30.17,WNW,288,2.0,4.0,52,0.00,,---,0.00,VWS V14.01,2013-11-18 23:44:00,
2013-11-18 18:49:00,46.5,30.3,30.17,WSW,241,2.0,2.0,53,0.00,,---,0.00,VWS V14.01,2013-11-18 23:49:00,
2013-11-18 18:54:00,46.1,30.4,30.17,WSW,240,1.0,2.0,54,0.00,,---,0.00,VWS V14.01,2013-11-18 23:54:00,
2013-11-18 18:59:00,45.7,30.0,30.18,SW,222,2.0,2.0,54,0.00,,---,0.00,VWS V14.01,2013-11-18 23:59:00,
2013-11-18 19:04:00,45.5,30.3,30.18,WNW,284,2.0,3.0,55,0.00,,---,0.00,VWS V14.01,2013-11-19 00:04:00,
2013-11-18 19:09:00,45.3,30.1,30.18,West,270,4.0,4.0,55,0.00,,---,0.00,VWS V14.01,2013-11-19 00:09:00,
2013-11-18 19:14:00,45.2,30.5,30.18,West,275,2.0,3.0,56,0.00,,---,0.00,VWS V14.01,2013-11-19 00:14:00,
2013-11-18 19:19:00,45.1,30.8,30.18,NW,313,2.0,2.0,57,0.00,,---,0.00,VWS V14.01,2013-11-19 00:19:00,
2013-11-18 19:24:00,44.9,30.6,30.18,West,273,1.0,2.0,57,0.00,,---,0.00,VWS V14.01,2013-11-19 00:24:00,
2013-11-18 19:29:00,44.7,30.9,30.18,WSW,239,1.0,2.0,58,0.00,,---,0.00,VWS V14.01,2013-11-19 00:29:00,
2013-11-18 19:34:00,44.4,30.6,30.18,WNW,290,0.0,1.0,58,0.00,,---,0.00,VWS V14.01,2013-11-19 00:34:00,
2013-11-18 19:39:00,44.1,30.7,30.19,West,264,1.0,1.0,59,0.00,,---,0.00,VWS V14.01,2013-11-19 00:39:00,
2013-11-18 19:44:00,43.9,30.5,30.19,West,278,1.0,2.0,59,0.00,,---,0.00,VWS V14.01,2013-11-19 00:44:00,
2013-11-18 19:49:00,43.7,30.7,30.19,WNW,295,2.0,2.0,60,0.00,,---,0.00,VWS V14.01,2013-11-19 00:49:00,
2013-11-18 19:54:00,43.6,30.6,30.19,WNW,299,0.0,2.0,60,0.00,,---,0.00,VWS V14.01,2013-11-19 00:54:00,
2013-11-18 19:59:00,43.5,30.1,30.19,WNW,287,2.0,2.0,59,0.00,,---,0.00,VWS V14.01,2013-11-19 00:59:00,
2013-11-18 20:04:00,43.4,30.5,30.19,WNW,290,0.0,0.0,60,0.00,,---,0.00,VWS V14.01,2013-11-19 01:04:00,
2013-11-18 20:09:00,43.1,30.6,30.19,West,267,1.0,1.0,61,0.00,,---,0.00,VWS V14.01,2013-11-19 01:09:00,
2013-11-18 20:14:00,42.8,30.7,30.19,West,262,1.0,1.0,62,0.00,,---,0.00,VWS V14.01,2013-11-19 01:14:00,
2013-11-18 20:19:00,42.6,30.5,30.19,West,270,2.0,2.0,62,0.00,,---,0.00,VWS V14.01,2013-11-19 01:19:00,
2013-11-18 20:24:00,42.5,30.4,30.19,SW,232,1.0,2.0,62,0.00,,---,0.00,VWS V14.01,2013-11-19 01:24:00,
2013-11-18 20:29:00,42.4,30.3,30.20,West,271,0.0,1.0,62,0.00,,---,0.00,VWS V14.01,2013-11-19 01:29:00,
2013-11-18 20:34:00,42.2,30.1,30.19,West,266,0.0,0.0,62,0.00,,---,0.00,VWS V14.01,2013-11-19 01:34:00,
2013-11-18 20:39:00,41.8,30.1,30.19,SW,236,1.0,3.0,63,0.00,,---,0.00,VWS V14.01,2013-11-19 01:39:00,
2013-11-18 20:44:00,41.6,30.0,30.20,West,263,0.0,0.0,63,0.00,,---,0.00,VWS V14.01,2013-11-19 01:44:00,
2013-11-18 20:49:00,41.5,30.2,30.20,SW,233,1.0,1.0,64,0.00,,---,0.00,VWS V14.01,2013-11-19 01:49:00,
2013-11-18 20:54:00,41.3,30.1,30.20,WSW,250,1.0,2.0,64,0.00,,---,0.00,VWS V14.01,2013-11-19 01:54:00,
2013-11-18 20:59:00,41.3,30.1,30.20,West,263,1.0,1.0,64,0.00,,---,0.00,VWS V14.01,2013-11-19 01:59:00,
2013-11-18 21:04:00,41.1,29.9,30.21,West,270,1.0,1.0,64,0.00,,---,0.00,VWS V14.01,2013-11-19 02:04:00,
2013-11-18 21:09:00,40.9,30.1,30.21,West,263,0.0,0.0,65,0.00,,---,0.00,VWS V14.01,2013-11-19 02:09:00,
2013-11-18 21:14:00,40.8,30.0,30.21,West,259,0.0,0.0,65,0.00,,---,0.00,VWS V14.01,2013-11-19 02:14:00,
2013-11-18 21:19:00,40.5,29.7,30.22,WNW,282,0.0,0.0,65,0.00,,---,0.00,VWS V14.01,2013-11-19 02:19:00,
2013-11-18 21:24:00,40.0,29.6,30.22,WNW,282,0.0,0.0,66,0.00,,---,0.00,VWS V14.01,2013-11-19 02:24:00,
2013-11-18 21:29:00,39.4,29.7,30.22,WNW,282,0.0,0.0,68,0.00,,---,0.00,VWS V14.01,2013-11-19 02:29:00,
2013-11-18 21:34:00,39.0,29.4,30.22,WNW,282,0.0,0.0,68,0.00,,---,0.00,VWS V14.01,2013-11-19 02:34:00,
2013-11-18 21:39:00,38.6,29.3,30.22,WNW,282,0.0,0.0,69,0.00,,---,0.00,VWS V14.01,2013-11-19 02:39:00,
2013-11-18 21:44:00,38.5,29.6,30.22,West,264,0.0,0.0,70,0.00,,---,0.00,VWS V14.01,2013-11-19 02:44:00,
2013-11-18 21:49:00,38.6,29.7,30.22,WSW,254,0.0,0.0,70,0.00,,---,0.00,VWS V14.01,2013-11-19 02:49:00,
2013-11-18 21:54:00,38.8,29.5,30.22,West,259,0.0,0.0,69,0.00,,---,0.00,VWS V14.01,2013-11-19 02:54:00,
2013-11-18 21:59:00,38.5,29.6,30.23,WSW,258,0.0,0.0,70,0.00,,---,0.00,VWS V14.01,2013-11-19 02:59:00,
2013-11-18 22:04:00,38.2,29.6,30.23,WSW,245,0.0,0.0,71,0.00,,---,0.00,VWS V14.01,2013-11-19 03:04:00,
2013-11-18 22:09:00,37.9,29.4,30.23,West,267,0.0,0.0,71,0.00,,---,0.00,VWS V14.01,2013-11-19 03:09:00,
2013-11-18 22:14:00,38.0,29.8,30.23,West,259,0.0,0.0,72,0.00,,---,0.00,VWS V14.01,2013-11-19 03:14:00,
2013-11-18 22:19:00,38.1,29.5,30.23,WSW,247,0.0,0.0,71,0.00,,---,0.00,VWS V14.01,2013-11-19 03:19:00,
2013-11-18 22:24:00,38.2,29.6,30.23,West,275,1.0,1.0,71,0.00,,---,0.00,VWS V14.01,2013-11-19 03:24:00,
2013-11-18 22:29:00,38.1,29.5,30.24,West,259,0.0,0.0,71,0.00,,---,0.00,VWS V14.01,2013-11-19 03:29:00,
2013-11-18 22:34:00,38.0,29.5,30.24,West,266,0.0,0.0,71,0.00,,---,0.00,VWS V14.01,2013-11-19 03:34:00,
2013-11-18 22:39:00,37.7,29.2,30.24,West,266,0.0,1.0,71,0.00,,---,0.00,VWS V14.01,2013-11-19 03:39:00,
2013-11-18 22:44:00,37.6,29.4,30.24,WSW,256,0.0,1.0,72,0.00,,---,0.00,VWS V14.01,2013-11-19 03:44:00,
2013-11-18 22:49:00,37.5,29.3,30.24,West,263,0.0,1.0,72,0.00,,---,0.00,VWS V14.01,2013-11-19 03:49:00,
2013-11-18 22:54:00,37.5,29.3,30.24,WSW,256,2.0,2.0,72,0.00,,---,0.00,VWS V14.01,2013-11-19 03:54:00,
2013-11-18 22:59:00,37.6,29.1,30.24,West,262,0.0,1.0,71,0.00,,---,0.00,VWS V14.01,2013-11-19 03:59:00,
2013-11-18 23:04:00,37.7,29.2,30.24,WNW,282,2.0,2.0,71,0.00,,---,0.00,VWS V14.01,2013-11-19 04:04:00,
2013-11-18 23:07:00,37.7,29.2,30.24,West,272,0.0,1.0,71,0.00,,---,0.00,VWS V14.01,2013-11-19 04:07:00,
2013-11-18 23:12:00,37.7,29.2,30.24,WSW,253,0.0,1.0,71,0.00,,---,0.00,VWS V14.01,2013-11-19 04:12:00,
2013-11-18 23:17:00,37.6,29.1,30.24,West,261,0.0,1.0,71,0.00,,---,0.00,VWS V14.01,2013-11-19 04:17:00,
2013-11-18 23:22:00,37.5,29.0,30.24,WSW,256,0.0,1.0,71,0.00,,---,0.00,VWS V14.01,2013-11-19 04:22:00,
2013-11-18 23:27:00,37.5,29.0,30.24,WSW,256,0.0,1.0,71,0.00,,---,0.00,VWS V14.01,2013-11-19 04:27:00,
2013-11-18 23:32:00,37.4,28.5,30.24,West,266,0.0,0.0,70,0.00,,---,0.00,VWS V14.01,2013-11-19 04:32:00,
2013-11-18 23:37:00,37.0,28.5,30.24,West,266,0.0,0.0,71,0.00,,---,0.00,VWS V14.01,2013-11-19 04:37:00,
2013-11-18 23:42:00,36.5,28.4,30.24,West,266,0.0,0.0,72,0.00,,---,0.00,VWS V14.01,2013-11-19 04:42:00,
2013-11-18 23:47:00,35.9,28.1,30.24,West,267,0.0,0.0,73,0.00,,---,0.00,VWS V14.01,2013-11-19 04:47:00,
2013-11-18 23:52:00,35.8,28.3,30.24,West,259,0.0,0.0,74,0.00,,---,0.00,VWS V14.01,2013-11-19 04:52:00,
2013-11-18 23:57:00,35.5,28.0,30.24,West,260,0.0,0.0,74,0.00,,---,0.00,VWS V14.01,2013-11-19 04:57:00,